TAP238 SBGL-LPPR

Flight info

Callsign TAP238
Flight time N/A
Altitude 37000
Route TISVA UL206 ENRUV UM661 PUGSA/N0464F390 UM661 ERETU UN857 GUNET N857 DEREV/N0455F400 N729 GDV N858 VASTO DCT BAROK DCT ABLEG
Aircraft A339/H-SADE1E2E3GHIJ3J5M1P2RWXY/LB2D1

Departure

Time 2026-05-04 02:46
Airport Rio Galeão – Tom Jobim International Airport (SBGL)

Arrival

Time N/A
Airport Francisco de Sá Carneiro Airport (LPPR)
Time Latitude Longitude Altitude Speed Heading
2026-05-04 02:17 -22.81039 -43.25330 28 ft 0 kts 93°
2026-05-04 02:33 -22.81038 -43.25337 27 ft 4 kts 93°
2026-05-04 02:34 -22.81036 -43.25361 26 ft 3 kts 59°
2026-05-04 02:34 -22.81046 -43.25381 24 ft 4 kts 28°
2026-05-04 02:34 -22.81065 -43.25388 24 ft 4 kts 355°
2026-05-04 02:34 -22.81084 -43.25386 26 ft 1 kts 360°
2026-05-04 02:35 -22.81087 -43.25386 26 ft 0 kts 360°
2026-05-04 02:41 -22.81080 -43.25386 27 ft 3 kts 360°
2026-05-04 02:41 -22.81037 -43.25386 27 ft 9 kts 360°
2026-05-04 02:41 -22.80972 -43.25399 28 ft 9 kts 333°
2026-05-04 02:42 -22.80940 -43.25442 30 ft 5 kts 306°
2026-05-04 02:42 -22.80932 -43.25456 32 ft 1 kts 303°
2026-05-04 02:42 -22.80929 -43.25461 32 ft 3 kts 302°
2026-05-04 02:42 -22.80908 -43.25502 34 ft 11 kts 297°
2026-05-04 02:43 -22.80855 -43.25623 28 ft 26 kts 297°
2026-05-04 02:43 -22.80741 -43.25662 35 ft 18 kts 22°
2026-05-04 02:43 -22.80632 -43.25589 34 ft 18 kts 33°
2026-05-04 02:43 -22.80527 -43.25546 36 ft 14 kts 348°
2026-05-04 02:44 -22.80445 -43.25593 36 ft 14 kts 329°
2026-05-04 02:44 -22.80353 -43.25592 33 ft 14 kts 25°
2026-05-04 02:44 -22.80268 -43.25529 31 ft 15 kts 36°
2026-05-04 02:44 -22.80184 -43.25457 30 ft 15 kts 46°
2026-05-04 02:45 -22.80146 -43.25354 31 ft 18 kts 74°
2026-05-04 02:45 -22.80060 -43.25014 33 ft 83 kts 74°
2026-05-04 02:45 -22.79836 -43.24172 36 ft 147 kts 74°
2026-05-04 02:45 -22.79529 -43.22926 93 ft 189 kts 75°
2026-05-04 02:46 -22.79222 -43.21544 681 ft 190 kts 75°
2026-05-04 02:46 -22.78895 -43.20142 1335 ft 194 kts 76°
2026-05-04 02:46 -22.78551 -43.18711 1931 ft 202 kts 77°
2026-05-04 02:46 -22.78207 -43.17172 2290 ft 219 kts 78°
2026-05-04 02:47 -22.77858 -43.15495 2539 ft 237 kts 79°
2026-05-04 02:47 -22.77491 -43.13696 2825 ft 251 kts 79°
2026-05-04 02:47 -22.77108 -43.11834 3197 ft 260 kts 79°
2026-05-04 02:47 -22.76707 -43.09927 3779 ft 260 kts 79°
2026-05-04 02:48 -22.76300 -43.07999 4274 ft 265 kts 78°
2026-05-04 02:48 -22.75884 -43.06041 4806 ft 268 kts 78°
2026-05-04 02:48 -22.75463 -43.04066 5317 ft 271 kts 78°
2026-05-04 02:48 -22.75038 -43.02072 5835 ft 274 kts 78°
2026-05-04 02:49 -22.74605 -43.00049 6358 ft 276 kts 77°
2026-05-04 02:49 -22.74172 -42.98020 6926 ft 277 kts 77°
2026-05-04 02:49 -22.73733 -42.95968 7372 ft 283 kts 77°
2026-05-04 02:49 -22.73288 -42.93879 7874 ft 286 kts 76°
2026-05-04 02:50 -22.72843 -42.91796 8359 ft 289 kts 76°
2026-05-04 02:50 -22.72379 -42.89628 8835 ft 294 kts 76°
2026-05-04 02:50 -22.71921 -42.87493 9303 ft 297 kts 75°
2026-05-04 02:50 -22.71451 -42.85297 9782 ft 301 kts 75°
2026-05-04 02:51 -22.70974 -42.83072 10244 ft 305 kts 75°
2026-05-04 02:51 -22.70484 -42.80804 10483 ft 317 kts 75°
2026-05-04 02:51 -22.69969 -42.78424 10626 ft 332 kts 75°
2026-05-04 02:51 -22.69432 -42.75940 10757 ft 346 kts 75°
2026-05-04 02:52 -22.68875 -42.73357 11000 ft 356 kts 76°
2026-05-04 02:52 -22.68302 -42.70697 11157 ft 368 kts 76°
2026-05-04 02:52 -22.67720 -42.67992 11556 ft 371 kts 76°
2026-05-04 02:52 -22.67131 -42.65264 12000 ft 373 kts 76°
2026-05-04 02:53 -22.66537 -42.62516 12435 ft 376 kts 76°
2026-05-04 02:53 -22.65942 -42.59761 12858 ft 377 kts 76°
2026-05-04 02:53 -22.65349 -42.57026 13251 ft 380 kts 76°
2026-05-04 02:53 -22.64739 -42.54222 13601 ft 384 kts 76°
2026-05-04 02:54 -22.64125 -42.51401 14017 ft 386 kts 76°
2026-05-04 02:54 -22.63508 -42.48563 14343 ft 390 kts 76°
2026-05-04 02:54 -22.62884 -42.45699 14660 ft 393 kts 76°
2026-05-04 02:54 -22.62252 -42.42809 14977 ft 396 kts 76°
2026-05-04 02:55 -22.60974 -42.36956 15612 ft 403 kts 76°
2026-05-04 02:55 -22.60326 -42.33996 15899 ft 407 kts 76°
2026-05-04 02:55 -22.59657 -42.31050 16186 ft 410 kts 73°
2026-05-04 02:56 -22.58665 -42.28155 16507 ft 411 kts 64°
2026-05-04 02:56 -22.57297 -42.25428 16794 ft 413 kts 55°
2026-05-04 02:56 -22.55590 -42.22929 17084 ft 414 kts 47°
2026-05-04 02:56 -22.53577 -42.20703 17402 ft 415 kts 38°
2026-05-04 02:57 -22.51349 -42.18715 17718 ft 416 kts 36°
2026-05-04 02:57 -22.49104 -42.16718 18020 ft 419 kts 36°
2026-05-04 02:57 -22.46854 -42.14697 18329 ft 422 kts 36°
2026-05-04 02:57 -22.44592 -42.12659 18642 ft 425 kts 36°
2026-05-04 02:58 -22.42347 -42.10633 18930 ft 427 kts 36°
2026-05-04 02:58 -22.40058 -42.08575 19229 ft 429 kts 36°
2026-05-04 02:58 -22.37754 -42.06506 19542 ft 431 kts 36°
2026-05-04 02:58 -22.35468 -42.04455 19818 ft 434 kts 36°
2026-05-04 02:59 -22.33135 -42.02360 20106 ft 436 kts 36°
2026-05-04 02:59 -22.30802 -42.00266 20429 ft 438 kts 36°
2026-05-04 02:59 -22.28452 -41.98158 20735 ft 440 kts 36°
2026-05-04 02:59 -22.26099 -41.96046 21038 ft 442 kts 36°
2026-05-04 03:00 -22.23720 -41.93912 21293 ft 446 kts 36°
2026-05-04 03:00 -22.21365 -41.91803 21624 ft 447 kts 36°
2026-05-04 03:00 -22.18968 -41.89653 21937 ft 450 kts 36°
2026-05-04 03:00 -22.16549 -41.87488 22274 ft 453 kts 36°
2026-05-04 03:01 -22.14122 -41.85315 22649 ft 454 kts 36°
2026-05-04 03:01 -22.11684 -41.83137 22927 ft 457 kts 36°
2026-05-04 03:01 -22.09232 -41.80948 23252 ft 459 kts 36°
2026-05-04 03:01 -22.06767 -41.78748 23580 ft 461 kts 35°
2026-05-04 03:02 -22.05136 -41.77292 23795 ft 463 kts 36°
2026-05-04 03:02 -22.02646 -41.75066 24070 ft 465 kts 36°
2026-05-04 03:02 -22.00156 -41.72841 24349 ft 467 kts 35°
2026-05-04 03:02 -21.96839 -41.69879 24712 ft 469 kts 35°
2026-05-04 03:03 -21.94317 -41.67629 24987 ft 471 kts 35°
2026-05-04 03:03 -21.91787 -41.65375 25242 ft 473 kts 35°
2026-05-04 03:03 -21.90073 -41.63849 25433 ft 475 kts 35°
2026-05-04 03:03 -21.87556 -41.61606 25696 ft 477 kts 35°
2026-05-04 03:04 -21.84997 -41.59329 25964 ft 479 kts 34°
2026-05-04 03:04 -21.82419 -41.57037 26228 ft 481 kts 34°
2026-05-04 03:04 -21.79836 -41.54742 26542 ft 481 kts 34°
2026-05-04 03:04 -21.76414 -41.51701 26860 ft 484 kts 35°
2026-05-04 03:05 -21.74656 -41.50141 27057 ft 485 kts 34°
2026-05-04 03:05 -21.71204 -41.47079 27388 ft 488 kts 34°
2026-05-04 03:05 -21.69462 -41.45534 27542 ft 489 kts 34°
2026-05-04 03:05 -21.66838 -41.43207 27799 ft 491 kts 34°
2026-05-04 03:06 -21.64197 -41.40867 28052 ft 493 kts 34°
2026-05-04 03:06 -21.61545 -41.38515 28273 ft 495 kts 34°
2026-05-04 03:06 -21.58882 -41.36155 28526 ft 497 kts 34°
2026-05-04 03:06 -21.56209 -41.33789 28757 ft 499 kts 34°
2026-05-04 03:07 -21.53525 -41.31415 28989 ft 501 kts 34°
2026-05-04 03:07 -21.50830 -41.29030 29211 ft 503 kts 34°
2026-05-04 03:07 -21.48155 -41.26664 29448 ft 505 kts 34°
2026-05-04 03:07 -21.45404 -41.24234 29670 ft 506 kts 34°
2026-05-04 03:08 -21.42554 -41.22161 29868 ft 500 kts 22°
2026-05-04 03:08 -21.39392 -41.20685 30099 ft 491 kts 11°
2026-05-04 03:08 -21.36089 -41.19871 30125 ft 483 kts
2026-05-04 03:08 -21.32778 -41.19749 30135 ft 472 kts 349°
2026-05-04 03:09 -21.29577 -41.20314 30132 ft 461 kts 338°
2026-05-04 03:09 -21.26622 -41.21529 30139 ft 451 kts 326°
2026-05-04 03:09 -21.24015 -41.23337 30144 ft 442 kts 315°
2026-05-04 03:09 -21.21872 -41.25643 30148 ft 434 kts 304°
2026-05-04 03:10 -21.20266 -41.28354 30154 ft 428 kts 292°
2026-05-04 03:10 -21.19279 -41.31293 30155 ft 424 kts 281°
2026-05-04 03:10 -21.18919 -41.34421 30156 ft 422 kts 270°
2026-05-04 03:10 -21.19221 -41.37540 30157 ft 423 kts 258°
2026-05-04 03:11 -21.19836 -41.40627 30155 ft 423 kts 263°
2026-05-04 03:11 -21.21204 -41.46738 30160 ft 427 kts 247°
2026-05-04 03:12 -21.24617 -41.52098 30174 ft 446 kts 233°
2026-05-04 03:12 -21.28837 -41.57003 30199 ft 453 kts 230°
2026-05-04 03:13 -21.33180 -41.61894 30228 ft 453 kts 231°
2026-05-04 03:13 -21.38904 -41.68429 30226 ft 452 kts 231°
2026-05-04 03:14 -21.47483 -41.78286 30221 ft 451 kts 231°
2026-05-04 03:14 -21.56057 -41.88165 30243 ft 451 kts 231°
2026-05-04 03:15 -21.64559 -41.97974 30262 ft 450 kts 232°
2026-05-04 03:15 -21.73100 -42.07851 30260 ft 455 kts 232°
2026-05-04 03:16 -21.81778 -42.17833 30262 ft 460 kts 229°
2026-05-04 03:16 -21.86827 -42.22136 30244 ft 468 kts 218°
2026-05-04 03:16 -21.92393 -42.25793 30240 ft 464 kts 224°
2026-05-04 03:16 -21.96469 -42.30988 30256 ft 450 kts 245°
2026-05-04 03:17 -21.98387 -42.37318 30251 ft 445 kts 257°
2026-05-04 03:17 -22.02099 -42.49941 30280 ft 444 kts 252°
2026-05-04 03:18 -22.06525 -42.62302 30267 ft 426 kts 251°
2026-05-04 03:18 -22.08608 -42.68101 30037 ft 415 kts 251°
2026-05-04 03:18 -22.10705 -42.73980 28900 ft 422 kts 251°
2026-05-04 03:18 -22.12807 -42.79871 27670 ft 419 kts 251°
2026-05-04 03:19 -22.14883 -42.85693 26398 ft 415 kts 251°
2026-05-04 03:19 -22.16939 -42.91461 25145 ft 413 kts 251°
2026-05-04 03:19 -22.18961 -42.97147 24001 ft 408 kts 250°
2026-05-04 03:19 -22.21012 -43.02898 22512 ft 408 kts 250°
2026-05-04 03:20 -22.23017 -43.08563 21270 ft 402 kts 250°
2026-05-04 03:20 -22.25000 -43.14164 20036 ft 396 kts 250°
2026-05-04 03:20 -22.26959 -43.19693 18740 ft 393 kts 250°
2026-05-04 03:20 -22.28893 -43.25164 17517 ft 385 kts 250°
2026-05-04 03:21 -22.30784 -43.30515 16243 ft 379 kts 250°
2026-05-04 03:21 -22.32640 -43.35775 15078 ft 371 kts 250°
2026-05-04 03:21 -22.34260 -43.40375 13922 ft 369 kts 250°
2026-05-04 03:21 -22.35161 -43.42932 13691 ft 356 kts 250°
2026-05-04 03:22 -22.36035 -43.45407 13570 ft 352 kts 250°
2026-05-04 03:22 -22.37236 -43.47712 13458 ft 354 kts 232°
2026-05-04 03:22 -22.39037 -43.49434 13376 ft 349 kts 213°
2026-05-04 03:22 -22.41202 -43.50481 13191 ft 334 kts 202°
2026-05-04 03:23 -22.43367 -43.51288 12688 ft 325 kts 201°
2026-05-04 03:23 -22.45498 -43.52071 11971 ft 324 kts 202°
2026-05-04 03:23 -22.47617 -43.52891 11229 ft 323 kts 202°
2026-05-04 03:23 -22.49744 -43.53752 10323 ft 329 kts 203°
2026-05-04 03:24 -22.51898 -43.54648 9319 ft 334 kts 203°
2026-05-04 03:24 -22.54079 -43.55544 8323 ft 337 kts 199°
2026-05-04 03:24 -22.56404 -43.55890 7353 ft 340 kts 177°
2026-05-04 03:24 -22.58688 -43.55315 6542 ft 336 kts 157°
2026-05-04 03:25 -22.60739 -43.54299 5894 ft 324 kts 153°
2026-05-04 03:25 -22.62645 -43.53050 5171 ft 317 kts 143°
2026-05-04 03:25 -22.64251 -43.51508 4805 ft 299 kts 134°
2026-05-04 03:25 -22.65578 -43.49881 4568 ft 277 kts 129°
2026-05-04 03:26 -22.66709 -43.48296 4392 ft 256 kts 127°
2026-05-04 03:26 -22.67725 -43.46781 4191 ft 243 kts 126°
2026-05-04 03:26 -22.68667 -43.45342 4078 ft 226 kts 125°
2026-05-04 03:26 -22.69544 -43.43998 3963 ft 212 kts 126°
2026-05-04 03:27 -22.70373 -43.42740 3761 ft 206 kts 126°
2026-05-04 03:27 -22.71202 -43.41492 3486 ft 199 kts 126°
2026-05-04 03:27 -22.71982 -43.40322 3420 ft 185 kts 126°
2026-05-04 03:27 -22.72712 -43.39209 3168 ft 181 kts 126°
2026-05-04 03:28 -22.73447 -43.38086 2799 ft 184 kts 126°
2026-05-04 03:28 -22.74197 -43.36949 2402 ft 187 kts 126°
2026-05-04 03:28 -22.74956 -43.35815 2134 ft 185 kts 126°
2026-05-04 03:28 -22.75710 -43.34692 1876 ft 183 kts 126°
2026-05-04 03:29 -22.76447 -43.33595 1614 ft 176 kts 126°
2026-05-04 03:29 -22.77147 -43.32537 1397 ft 169 kts 125°
2026-05-04 03:29 -22.77811 -43.31519 1136 ft 163 kts 125°
2026-05-04 03:29 -22.78462 -43.30524 875 ft 165 kts 125°
2026-05-04 03:30 -22.79143 -43.29503 652 ft 168 kts 126°
2026-05-04 03:30 -22.79831 -43.28483 475 ft 168 kts 126°
2026-05-04 03:30 -22.80517 -43.27463 308 ft 168 kts 122°
2026-05-04 03:30 -22.81203 -43.26425 100 ft 170 kts 126°
2026-05-04 03:31 -22.81863 -43.25425 33 ft 149 kts 125°
2026-05-04 03:31 -22.82273 -43.24808 26 ft 43 kts 127°
2026-05-04 03:31 -22.82358 -43.24575 25 ft 33 kts 100°
2026-05-04 03:31 -22.82331 -43.24439 25 ft 16 kts 50°
2026-05-04 03:32 -22.82254 -43.24356 28 ft 14 kts 41°
2026-05-04 03:32 -22.82175 -43.24313 27 ft 13 kts 25°
2026-05-04 03:32 -22.82093 -43.24275 27 ft 13 kts 22°
2026-05-04 03:32 -22.82027 -43.24276 27 ft 8 kts 330°
2026-05-04 03:33 -22.81965 -43.24301 27 ft 13 kts 353°
2026-05-04 03:33 -22.81936 -43.24305 27 ft 5 kts 352°